| time (UTC) | temp F | wind direction | speed MPH | gust MPH | rain 1hr in | rain 24hr in | rain mn in | humidity % | barometer mb |
| 20260903053433 | 81 | 69 | 2.0 | 10.0 | 0.00 | 0.00 | 0.00 | 71 | 1014.5 |
| 20260903052732 | 81 | 78 | 5.0 | 10.0 | 0.00 | 0.00 | 0.00 | 69 | 1014.1 |
| 20260903051332 | 81 | 67 | 5.0 | 12.0 | 0.00 | 0.00 | 0.00 | 68 | 1014.1 |
| 20260903045932 | 82 | 65 | 5.0 | 12.0 | 0.00 | 0.00 | 0.00 | 66 | 1014.1 |
| 20260903045232 | 82 | 120 | 5.0 | 12.0 | 0.00 | 0.00 | 0.00 | 66 | 1014.5 |
| 20260903044532 | 82 | 97 | 14.0 | 12.0 | 0.00 | 0.00 | 0.00 | 65 | 1014.1 |
| 20260903043832 | 82 | 58 | 2.0 | 12.0 | 0.00 | 0.00 | 0.00 | 65 | 1014.1 |
| 20260903043132 | 83 | 65 | 5.0 | 12.0 | 0.00 | 0.00 | 0.00 | 65 | 1014.1 |
| 20260903042432 | 83 | 102 | 11.0 | 10.0 | 0.00 | 0.00 | 0.00 | 63 | 1014.1 |
| 20260903041732 | 83 | 59 | 2.0 | 10.0 | 0.00 | 0.00 | 0.00 | 63 | 1014.1 |
| 20260903035632 | 84 | 67 | 8.0 | 10.0 | 0.00 | 0.00 | 0.00 | 61 | 1014.5 |
| 20260903034932 | 84 | 62 | 5.0 | 10.0 | 0.00 | 0.00 | 0.00 | 61 | 1014.1 |
| 20260903034231 | 84 | 95 | 5.0 | 10.0 | 0.00 | 0.00 | 0.00 | 60 | 1014.1 |
| 20260903033531 | 85 | 58 | 2.0 | 12.0 | 0.00 | 0.00 | 0.00 | 59 | 1014.5 |
| 20260903032832 | 85 | 62 | 5.0 | 12.0 | 0.00 | 0.00 | 0.00 | 60 | 1014.1 |
| 20260903032131 | 85 | 65 | 5.0 | 12.0 | 0.00 | 0.00 | 0.00 | 59 | 1014.1 |
| 20260903031432 | 85 | 113 | 8.0 | 12.0 | 0.00 | 0.00 | 0.00 | 58 | 1014.1 |
| 20260903030731 | 86 | 63 | 5.0 | 12.0 | 0.00 | 0.00 | 0.00 | 57 | 1014.1 |
| 20260903025331 | 86 | 55 | 14.0 | 12.0 | 0.00 | 0.00 | 0.00 | 57 | 1014.1 |
| 20260903024633 | 87 | 94 | 14.0 | 12.0 | 0.00 | 0.00 | 0.00 | 56 | 1014.1 |
| 20260903023931 | 87 | 71 | 8.0 | 12.0 | 0.00 | 0.00 | 0.00 | 56 | 1014.1 |
| 20260903023232 | 87 | 114 | 8.0 | 12.0 | 0.00 | 0.00 | 0.00 | 55 | 1014.1 |
| 20260903022532 | 88 | 67 | 5.0 | 12.0 | 0.00 | 0.00 | 0.00 | 54 | 1013.8 |
| 20260903021834 | 88 | 141 | 14.0 | 14.0 | 0.00 | 0.00 | 0.00 | 54 | 1013.8 |
| 20260903021132 | 88 | 118 | 8.0 | 14.0 | 0.00 | 0.00 | 0.00 | 54 | 1013.5 |
| 20260903020432 | 89 | 59 | 5.0 | 14.0 | 0.00 | 0.00 | 0.00 | 53 | 1013.5 |
| 20260903015032 | 89 | 101 | 5.0 | 14.0 | 0.00 | 0.00 | 0.00 | 52 | 1013.5 |
| 20260903014331 | 90 | 92 | 5.0 | 14.0 | 0.00 | 0.00 | 0.00 | 51 | 1013.1 |
| 20260903013631 | 90 | 91 | 8.0 | 14.0 | 0.00 | 0.00 | 0.00 | 51 | 1013.1 |
| 20260903012932 | 90 | 63 | 5.0 | 14.0 | 0.00 | 0.00 | 0.00 | 51 | 1013.1 |
| 20260903012231 | 90 | 62 | 5.0 | 10.0 | 0.00 | 0.00 | 0.00 | 51 | 1013.1 |
| 20260903011531 | 90 | 57 | 2.0 | 10.0 | 0.00 | 0.00 | 0.00 | 51 | 1012.8 |
| 20260903010831 | 90 | 72 | 2.0 | 10.0 | 0.00 | 0.00 | 0.00 | 51 | 1012.8 |
| 20260903010131 | 90 | 65 | 5.0 | 10.0 | 0.00 | 0.00 | 0.00 | 51 | 1012.4 |
| 20260903005431 | 91 | 68 | 5.0 | 8.0 | 0.00 | 0.00 | 0.00 | 53 | 1012.4 |
| 20260903004731 | 91 | 64 | 5.0 | 6.0 | 0.00 | 0.00 | 0.00 | 52 | 1012.4 |
| 20260903004031 | 91 | 62 | 0.0 | 6.0 | 0.00 | 0.00 | 0.00 | 52 | 1012.4 |
| 20260903003332 | 91 | 56 | 2.0 | 6.0 | 0.00 | 0.00 | 0.00 | 52 | 1012.4 |
| 20260903002631 | 91 | 72 | 5.0 | 6.0 | 0.00 | 0.00 | 0.00 | 51 | 1012.4 |
| 20260903001931 | 92 | 60 | 0.0 | 6.0 | 0.00 | 0.00 | 0.00 | 51 | 1012.4 |
| 20260903001231 | 92 | 62 | 0.0 | 6.0 | 0.00 | 0.00 | 0.00 | 50 | 1012.4 |
| 20260903000531 | 92 | 65 | 2.0 | 10.0 | 0.00 | 0.00 | 0.00 | 50 | 1012.4 |
| 20260902235831 | 92 | 63 | 5.0 | 12.0 | 0.00 | 0.00 | 0.00 | 51 | 1012.4 |
| 20260902235131 | 92 | 58 | 0.0 | 12.0 | 0.00 | 0.00 | 0.00 | 50 | 1012.4 |
| 20260902234431 | 92 | 67 | 2.0 | 17.0 | 0.00 | 0.00 | 0.00 | 50 | 1012.4 |
| 20260902233731 | 91 | 63 | 0.0 | 17.0 | 0.00 | 0.00 | 0.00 | 51 | 1012.1 |
| 20260902233031 | 91 | 57 | 0.0 | 17.0 | 0.00 | 0.00 | 0.00 | 51 | 1012.4 |
| 20260902232331 | 90 | 60 | 0.0 | 17.0 | 0.00 | 0.00 | 0.00 | 51 | 1012.4 |
| 20260902231631 | 90 | 40 | 5.0 | 17.0 | 0.00 | 0.00 | 0.00 | 51 | 1012.1 |
| 20260902230931 | 91 | 45 | 5.0 | 17.0 | 0.00 | 0.00 | 0.00 | 48 | 1012.4 |
| 20260902230231 | 94 | 63 | 11.0 | 17.0 | 0.00 | 0.00 | 0.00 | 44 | 1012.4 |
| 20260902225531 | 96 | 75 | 22.0 | 17.0 | 0.00 | 0.00 | 0.00 | 43 | 1012.4 |
| 20260902224831 | 98 | 84 | 14.0 | 12.0 | 0.00 | 0.00 | 0.00 | 42 | 1012.1 |
| 20260902224131 | 98 | 71 | 2.0 | 12.0 | 0.00 | 0.00 | 0.00 | 42 | 1012.1 |
| 20260902222731 | 98 | 73 | 5.0 | 12.0 | 0.00 | 0.00 | 0.00 | 40 | 1011.8 |
| 20260902222031 | 98 | 61 | 0.0 | 12.0 | 0.00 | 0.00 | 0.00 | 40 | 1012.1 |
| 20260902221331 | 99 | 67 | 0.0 | 12.0 | 0.00 | 0.00 | 0.00 | 40 | 1012.1 |
| 20260902220631 | 100 | 61 | 0.0 | 14.0 | 0.00 | 0.00 | 0.00 | 39 | 1012.1 |
| 20260902215931 | 101 | 104 | 8.0 | 14.0 | 0.00 | 0.00 | 0.00 | 39 | 1012.4 |
| 20260902215231 | 100 | 43 | 2.0 | 14.0 | 0.00 | 0.00 | 0.00 | 39 | 1012.1 |
| 20260902214531 | 101 | 103 | 11.0 | 14.0 | 0.00 | 0.00 | 0.00 | 38 | 1012.4 |
| 20260902213831 | 101 | 49 | 8.0 | 14.0 | 0.00 | 0.00 | 0.00 | 38 | 1012.4 |
| 20260902212431 | 102 | 57 | 2.0 | 14.0 | 0.00 | 0.00 | 0.00 | 38 | 1012.4 |
| 20260902211731 | 102 | 69 | 2.0 | 8.0 | 0.00 | 0.00 | 0.00 | 38 | 1012.4 |
| 20260902210331 | 105 | 61 | 2.0 | 8.0 | 0.00 | 0.00 | 0.00 | 37 | 1012.4 |
| 20260902204931 | 104 | 323 | 8.0 | 12.0 | 0.00 | 0.00 | 0.00 | 38 | 1012.8 |
| 20260902204231 | 104 | 336 | 8.0 | 12.0 | 0.00 | 0.00 | 0.00 | 38 | 1013.1 |
| 20260902202831 | 103 | 58 | 2.0 | 12.0 | 0.00 | 0.00 | 0.00 | 40 | 1012.8 |
| 20260902201431 | 100 | 55 | 0.0 | 12.0 | 0.00 | 0.00 | 0.00 | 41 | 1013.1 |
| 20260902200731 | 99 | 20 | 5.0 | 12.0 | 0.00 | 0.00 | 0.00 | 42 | 1013.5 |
| 20260902200031 | 98 | 61 | 11.0 | 10.0 | 0.00 | 0.00 | 0.00 | 42 | 1013.8 |
| 20260902195331 | 98 | 75 | 11.0 | 10.0 | 0.00 | 0.00 | 0.00 | 43 | 1013.8 |
| 20260902194631 | 98 | 50 | 5.0 | 8.0 | 0.00 | 0.00 | 0.00 | 44 | 1013.8 |
| 20260902193930 | 97 | 75 | 5.0 | 8.0 | 0.00 | 0.00 | 0.00 | 44 | 1013.8 |
| 20260902192531 | 98 | 57 | 5.0 | 8.0 | 0.00 | 0.00 | 0.00 | 44 | 1014.1 |
| 20260902191831 | 98 | 97 | 5.0 | 8.0 | 0.00 | 0.00 | 0.00 | 45 | 1014.5 |
| 20260902191130 | 97 | 79 | 8.0 | 8.0 | 0.00 | 0.00 | 0.00 | 45 | 1014.5 |
| 20260902190431 | 97 | 85 | 5.0 | 8.0 | 0.00 | 0.00 | 0.00 | 46 | 1014.5 |
| 20260902185030 | 98 | 60 | 5.0 | 14.0 | 0.00 | 0.00 | 0.00 | 45 | 1014.5 |
| 20260902184331 | 99 | 51 | 2.0 | 14.0 | 0.00 | 0.00 | 0.00 | 45 | 1015.1 |
| 20260902183630 | 99 | 56 | 5.0 | 14.0 | 0.00 | 0.00 | 0.00 | 45 | 1015.1 |
| 20260902182930 | 99 | 48 | 0.0 | 14.0 | 0.00 | 0.00 | 0.00 | 46 | 1015.1 |
| 20260902181530 | 97 | 344 | 8.0 | 14.0 | 0.00 | 0.00 | 0.00 | 48 | 1015.5 |
| 20260902180831 | 98 | 65 | 5.0 | 14.0 | 0.00 | 0.00 | 0.00 | 47 | 1015.5 |
| 20260902180130 | 98 | 142 | 19.0 | 14.0 | 0.00 | 0.00 | 0.00 | 47 | 1015.8 |
| 20260902175430 | 97 | 25 | 5.0 | 10.0 | 0.00 | 0.00 | 0.00 | 50 | 1016.2 |
| 20260902173330 | 96 | 81 | 8.0 | 10.0 | 0.00 | 0.00 | 0.00 | 53 | 1016.5 |
| 20260902172630 | 95 | 100 | 5.0 | 10.0 | 0.00 | 0.00 | 0.00 | 53 | 1016.2 |
| 20260902171931 | 94 | 78 | 5.0 | 10.0 | 0.00 | 0.00 | 0.00 | 55 | 1016.5 |
| 20260902170530 | 92 | 73 | 8.0 | 8.0 | 0.00 | 0.00 | 0.00 | 58 | 1016.8 |
| 20260902165830 | 90 | 61 | 5.0 | 8.0 | 0.00 | 0.00 | 0.00 | 60 | 1016.5 |
| 20260902165131 | 89 | 60 | 2.0 | 8.0 | 0.00 | 0.00 | 0.00 | 61 | 1016.8 |
| 20260902164430 | 90 | 62 | 2.0 | 6.0 | 0.00 | 0.00 | 0.00 | 59 | 1016.8 |
| 20260902163731 | 90 | 59 | 5.0 | 6.0 | 0.00 | 0.00 | 0.00 | 59 | 1016.8 |
| 20260902162330 | 92 | 63 | 5.0 | 6.0 | 0.00 | 0.00 | 0.00 | 59 | 1016.8 |
| 20260902161631 | 92 | 26 | 0.0 | 6.0 | 0.00 | 0.00 | 0.00 | 58 | 1016.8 |
| 20260902160930 | 92 | 58 | 5.0 | 6.0 | 0.00 | 0.00 | 0.00 | 58 | 1017.2 |
| 20260902160230 | 93 | 68 | 2.0 | 6.0 | 0.00 | 0.00 | 0.00 | 57 | 1016.8 |
| 20260902155531 | 92 | 60 | 2.0 | 6.0 | 0.00 | 0.00 | 0.00 | 59 | 1016.8 |
| 20260902154830 | 91 | 51 | 2.0 | 6.0 | 0.00 | 0.00 | 0.00 | 60 | 1017.2 |
| 20260902154131 | 90 | 0 | 5.0 | 6.0 | 0.00 | 0.00 | 0.00 | 62 | 1017.2 |
| 20260902153430 | 89 | 55 | 2.0 | 6.0 | 0.00 | 0.00 | 0.00 | 62 | 1017.2 |
| 20260902152030 | 89 | 66 | 5.0 | 6.0 | 0.00 | 0.00 | 0.00 | 63 | 1016.8 |
| 20260902151331 | 88 | 60 | 0.0 | 6.0 | 0.00 | 0.00 | 0.00 | 64 | 1017.2 |
| 20260902145931 | 86 | 63 | 5.0 | 8.0 | 0.00 | 0.00 | 0.00 | 65 | 1016.8 |
| 20260902144530 | 86 | 61 | 2.0 | 8.0 | 0.00 | 0.00 | 0.00 | 66 | 1017.2 |
| 20260902143130 | 85 | 62 | 0.0 | 8.0 | 0.00 | 0.00 | 0.00 | 67 | 1016.8 |
| 20260902142430 | 85 | 70 | 5.0 | 8.0 | 0.00 | 0.00 | 0.00 | 66 | 1017.2 |
| 20260902141730 | 86 | 59 | 2.0 | 8.0 | 0.00 | 0.00 | 0.00 | 65 | 1016.8 |
| 20260902141030 | 86 | 72 | 8.0 | 8.0 | 0.00 | 0.00 | 0.00 | 66 | 1016.8 |
| 20260902140333 | 86 | 59 | 0.0 | 6.0 | 0.00 | 0.00 | 0.00 | 66 | 1016.8 |
| 20260902135633 | 85 | 57 | 2.0 | 6.0 | 0.00 | 0.00 | 0.00 | 67 | 1016.8 |
| 20260902134933 | 85 | 58 | 2.0 | 6.0 | 0.00 | 0.00 | 0.00 | 67 | 1016.8 |
| 20260902134233 | 84 | 73 | 5.0 | 6.0 | 0.00 | 0.00 | 0.00 | 69 | 1016.8 |
| 20260902133533 | 82 | 84 | 2.0 | 6.0 | 0.00 | 0.00 | 0.00 | 70 | 1016.5 |
| 20260902132833 | 81 | 75 | 5.0 | 6.0 | 0.00 | 0.00 | 0.00 | 70 | 1016.5 |
| 20260902132133 | 81 | 71 | 2.0 | 6.0 | 0.00 | 0.00 | 0.00 | 70 | 1016.8 |
| 20260902131433 | 80 | 75 | 5.0 | 6.0 | 0.00 | 0.00 | 0.00 | 71 | 1016.8 |
| 20260902130733 | 80 | 58 | 2.0 | 6.0 | 0.00 | 0.00 | 0.00 | 72 | 1016.8 |
| 20260902130032 | 79 | 63 | 2.0 | 4.0 | 0.00 | 0.00 | 0.00 | 73 | 1016.8 |
| 20260902124833 | 78 | 84 | 2.0 | 4.0 | 0.00 | 0.00 | 0.00 | 73 | 1016.5 |
| 20260902123433 | 78 | 59 | 0.0 | 0.0 | 0.00 | 0.00 | 0.00 | 74 | 1016.5 |
| 20260902122733 | 78 | 59 | 0.0 | 0.0 | 0.00 | 0.00 | 0.00 | 74 | 1016.2 |
| 20260902122033 | 78 | 59 | 0.0 | 0.0 | 0.00 | 0.00 | 0.00 | 74 | 1016.5 |
| 20260902121333 | 78 | 58 | 0.0 | 0.0 | 0.00 | 0.00 | 0.00 | 74 | 1016.2 |
| 20260902120633 | 78 | 61 | 0.0 | 0.0 | 0.00 | 0.00 | 0.00 | 74 | 1016.5 |
| 20260902115933 | 78 | 59 | 0.0 | 0.0 | 0.00 | 0.00 | 0.00 | 73 | 1016.2 |
| 20260902115233 | 78 | 59 | 0.0 | 0.0 | 0.00 | 0.00 | 0.00 | 73 | 1016.2 |
| 20260902114536 | 78 | 59 | 0.0 | 0.0 | 0.00 | 0.00 | 0.00 | 73 | 1016.2 |
| 20260902112433 | 78 | 59 | 0.0 | 0.0 | 0.00 | 0.00 | 0.00 | 73 | 1016.5 |
| 20260902111032 | 79 | 59 | 0.0 | 0.0 | 0.00 | 0.00 | 0.00 | 72 | 1016.2 |
| 20260902110332 | 79 | 59 | 0.0 | 0.0 | 0.00 | 0.00 | 0.00 | 72 | 1016.5 |
| 20260902105633 | 79 | 59 | 0.0 | 0.0 | 0.00 | 0.00 | 0.00 | 71 | 1016.5 |
| 20260902104933 | 79 | 59 | 0.0 | 0.0 | 0.00 | 0.00 | 0.00 | 71 | 1016.2 |
| 20260902104232 | 79 | 59 | 0.0 | 0.0 | 0.00 | 0.00 | 0.00 | 71 | 1016.5 |
| 20260902103533 | 79 | 59 | 0.0 | 0.0 | 0.00 | 0.00 | 0.00 | 70 | 1016.2 |
| 20260902102832 | 79 | 61 | 0.0 | 0.0 | 0.00 | 0.00 | 0.00 | 70 | 1016.2 |
| 20260902102132 | 79 | 58 | 0.0 | 0.0 | 0.00 | 0.00 | 0.00 | 70 | 1016.2 |
| 20260902101432 | 79 | 59 | 0.0 | 0.0 | 0.00 | 0.00 | 0.00 | 70 | 1016.5 |
| 20260902100033 | 79 | 59 | 0.0 | 0.0 | 0.00 | 0.00 | 0.00 | 70 | 1016.5 |
| 20260902093933 | 80 | 59 | 0.0 | 0.0 | 0.00 | 0.00 | 0.00 | 69 | 1016.2 |
| 20260902093232 | 80 | 63 | 0.0 | 0.0 | 0.00 | 0.00 | 0.00 | 69 | 1016.5 |
| 20260902092532 | 80 | 58 | 0.0 | 2.0 | 0.00 | 0.00 | 0.00 | 69 | 1016.2 |
| 20260902091833 | 80 | 59 | 0.0 | 4.0 | 0.00 | 0.00 | 0.00 | 68 | 1016.2 |
| 20260902091133 | 80 | 59 | 0.0 | 4.0 | 0.00 | 0.00 | 0.00 | 68 | 1016.5 |
| 20260902090434 | 81 | 59 | 0.0 | 4.0 | 0.00 | 0.00 | 0.00 | 67 | 1016.2 |
| 20260902085732 | 81 | 59 | 0.0 | 4.0 | 0.00 | 0.00 | 0.00 | 67 | 1016.2 |
| 20260902083632 | 82 | 59 | 0.0 | 8.0 | 0.00 | 0.00 | 0.00 | 66 | 1015.8 |
| 20260902082933 | 82 | 58 | 0.0 | 8.0 | 0.00 | 0.00 | 0.00 | 65 | 1016.2 |
| 20260902082232 | 82 | 64 | 2.0 | 8.0 | 0.00 | 0.00 | 0.00 | 65 | 1016.2 |
| 20260902081534 | 82 | 62 | 0.0 | 8.0 | 0.00 | 0.00 | 0.00 | 65 | 1016.2 |
| 20260902080135 | 82 | 61 | 5.0 | 8.0 | 0.00 | 0.00 | 0.00 | 64 | 1016.2 |
| 20260902075434 | 83 | 58 | 0.0 | 6.0 | 0.00 | 0.00 | 0.00 | 64 | 1016.2 |
| 20260902074733 | 83 | 59 | 0.0 | 8.0 | 0.00 | 0.00 | 0.00 | 64 | 1016.2 |
| 20260902073333 | 83 | 57 | 0.0 | 8.0 | 0.00 | 0.00 | 0.00 | 63 | 1015.8 |
| 20260902072632 | 84 | 59 | 0.0 | 8.0 | 0.00 | 0.00 | 0.00 | 63 | 1016.2 |
| 20260902071933 | 84 | 62 | 2.0 | 8.0 | 0.00 | 0.00 | 0.00 | 63 | 1016.2 |
| 20260902071232 | 84 | 66 | 2.0 | 8.0 | 0.00 | 0.00 | 0.00 | 62 | 1016.2 |
| 20260902070532 | 84 | 72 | 2.0 | 8.0 | 0.00 | 0.00 | 0.00 | 62 | 1016.2 |
| 20260902065832 | 84 | 54 | 5.0 | 8.0 | 0.00 | 0.00 | 0.00 | 62 | 1016.5 |
| 20260902065132 | 84 | 68 | 8.0 | 8.0 | 0.00 | 0.00 | 0.00 | 62 | 1015.8 |
| 20260902063732 | 84 | 60 | 0.0 | 8.0 | 0.00 | 0.00 | 0.00 | 62 | 1015.8 |
| 20260902063032 | 85 | 60 | 5.0 | 8.0 | 0.00 | 0.00 | 0.00 | 61 | 1015.8 |
| 20260902062332 | 85 | 70 | 5.0 | 8.0 | 0.00 | 0.00 | 0.00 | 61 | 1016.2 |
| 20260902061632 | 85 | 70 | 8.0 | 8.0 | 0.00 | 0.00 | 0.00 | 61 | 1016.2 |
| 20260902060932 | 85 | 75 | 5.0 | 8.0 | 0.00 | 0.00 | 0.00 | 61 | 1016.2 |
| 20260902060232 | 85 | 61 | 2.0 | 8.0 | 0.00 | 0.00 | 0.00 | 60 | 1016.2 |
| 20260902055536 | 85 | 58 | 2.0 | 8.0 | 0.00 | 0.00 | 0.00 | 60 | 1015.8 |
| 20260902054132 | 86 | 73 | 8.0 | 8.0 | 0.00 | 0.00 | 0.00 | 59 | 1015.8 |